Погода в Мургаше

Болгария     42°59′08″N   23°00′07″E
темп.,
°C
ветер,
м/с
пор.,
м/с
влажн.,
%
обл.,
%
осадки,
мм/ч
давл.,
гПа
погр.,
м
16 июня, ср
ср1600:00+9сз239776 0.0 101652
03:00+10сз349885 0.0 101592
06:00+10сз239734 0.0 101496
09:00+14зсз358632 0.0 1015428
12:00+18сз567562 0.8 10151064
15:00+19сз457527 3.0 10141069
18:00+19сз247344 2.9 1015652
21:00+14ссз228814 4.8 101614
17 июня, чт
чт1700:00+12с008844 0.4 101810
03:00+11сз11905 0.4 101810
06:00+11сз229375 0.0 101811
09:00+16зсз228512 0.0 1018278
12:00+20сз337348 1.1 1018819
15:00+21сз237172 5.4 1017878
18:00+20с227359 5.9 1017278
21:00+16св118232 8.3 101812
18 июня, пт
пт1800:00+13ссв11869 1.3 101911
03:00+12св1185100 1.3 101810
06:00+12с118677 0.0 101810
09:00+16зсз118072 0.0 1018226
12:00+20сз2272100 1.4 1017656
15:00+20ссз3371100 4.3 1016914
18:00+19с1283100 1.8 1016144
21:00+15ююв119398 3.6 101716
19 июня, сб
сб1900:00+13ссз1192100 0.1 101611
03:00+15ссз1190100 0.1 101511
06:00+14сз11936 0.1 101516
09:00+17сз238749 0.4 1015400
12:00+20ссз2277100 3.1 1014807
15:00+20всв227597 10.4 1013671
18:00+19св2279100 5.8 1014474
21:00+15ссв2292100 7.1 101531
20 июня, вс
вс2000:00+14ссв229447 0.1 101723
03:00+13св2295100 0.1 101762
06:00+13св1196100 0.1 101651
09:00+15св118958 0.1 1017314
12:00+19вюв117445 0.8 1016859
15:00+20ссз12708 2.9 10151003
18:00+20ссз22745 1.6 1014714
21:00+16с11870 2.5 101512